• In Deutschland
  • Länderverzeichnis
  • Für 7 Tage
  • Wassertemperatur
  • Satellitenkarten
  • Wetterkarte
  • Widgets
  • user-avatar
    Anmelden

    Stündliche Wetter Werl

    Heute, 21 September, Freitag

    Zeit Temperatur Niederschläge Wind Luftdruck Luftfeuchtigkeit
    00:00 +20°C° 0 mm 4 m/S 749 mmHg 65%
    01:00 +20°C° 0 mm 4 m/S 748 mmHg 65%
    02:00 +20°C° 0 mm 4 m/S 747 mmHg 66%
    03:00 +21°C° 0 mm 5 m/S 747 mmHg 67%
    04:00 +21°C° 0 mm 5 m/S 746 mmHg 68%
    05:00 +21°C° 0 mm 5 m/S 746 mmHg 67%
    06:00 +21°C° 0 mm 6 m/S 745 mmHg 66%
    07:00 +21°C° 0 mm 4 m/S 744 mmHg 65%
    08:00 +21°C° 0.1 mm 5 m/S 744 mmHg 63%
    09:00 +21°C° 0.1 mm 6 m/S 744 mmHg 62%
    10:00 +21°C° 0.1 mm 7 m/S 745 mmHg 60%
    11:00 +20°C° 0.8 mm 7 m/S 745 mmHg 66%
    12:00 +17°C° 0.8 mm 7 m/S 746 mmHg 71%
    13:00 +16°C° 0.8 mm 6 m/S 746 mmHg 77%
    14:00 +16°C° 0.1 mm 7 m/S 747 mmHg 68%
    15:00 +16°C° 0.1 mm 7 m/S 747 mmHg 59%
    16:00 +17°C° 0.1 mm 7 m/S 748 mmHg 50%
    17:00 +16°C° 0 mm 6 m/S 749 mmHg 50%
    18:00 +15°C° 0 mm 5 m/S 749 mmHg 50%
    19:00 +14°C° 0 mm 5 m/S 750 mmHg 51%
    20:00 +13°C° 0 mm 5 m/S 751 mmHg 52%
    21:00 +13°C° 0 mm 5 m/S 751 mmHg 54%
    22:00 +13°C° 0 mm 6 m/S 752 mmHg 56%
    23:00 +11°C° 0 mm 6 m/S 752 mmHg 59%

    Morgen, 22 September, Samstag

    Zeit Temperatur Niederschläge Wind Luftdruck Luftfeuchtigkeit
    00:00 +11°C° 0 mm 6 m/S 752 mmHg 62%
    01:00 +11°C° 0 mm 6 m/S 753 mmHg 65%
    02:00 +11°C° 0 mm 6 m/S 753 mmHg 68%
    03:00 +12°C° 0 mm 5 m/S 753 mmHg 70%
    04:00 +10°C° 0 mm 5 m/S 754 mmHg 73%
    05:00 +10°C° 0 mm 5 m/S 754 mmHg 74%
    06:00 +10°C° 0 mm 5 m/S 754 mmHg 75%
    07:00 +11°C° 0 mm 4 m/S 755 mmHg 76%
    08:00 +12°C° 0 mm 5 m/S 755 mmHg 71%
    09:00 +13°C° 0 mm 5 m/S 755 mmHg 67%
    10:00 +14°C° 0 mm 6 m/S 755 mmHg 62%
    11:00 +15°C° 0 mm 6 m/S 755 mmHg 59%
    12:00 +15°C° 0 mm 6 m/S 755 mmHg 55%
    13:00 +16°C° 0 mm 6 m/S 755 mmHg 52%
    14:00 +16°C° 0.1 mm 6 m/S 755 mmHg 53%
    15:00 +16°C° 0.1 mm 6 m/S 755 mmHg 55%
    16:00 +16°C° 0.1 mm 5 m/S 755 mmHg 56%
    17:00 +15°C° 0.1 mm 5 m/S 755 mmHg 60%
    18:00 +14°C° 0.1 mm 4 m/S 755 mmHg 65%
    19:00 +13°C° 0.1 mm 3 m/S 755 mmHg 69%
    20:00 +12°C° 0 mm 3 m/S 756 mmHg 71%
    21:00 +12°C° 0 mm 3 m/S 756 mmHg 73%
    22:00 +13°C° 0 mm 2 m/S 756 mmHg 75%
    23:00 +13°C° 0.1 mm 2 m/S 756 mmHg 77%

    übermorgen, 23 September, Sonntag

    Zeit Temperatur Niederschläge Wind Luftdruck Luftfeuchtigkeit
    00:00 +12°C° 0.1 mm 2 m/S 756 mmHg 79%
    01:00 +12°C° 0.1 mm 2 m/S 756 mmHg 82%
    02:00 +12°C° 0.2 mm 2 m/S 756 mmHg 84%
    03:00 +12°C° 0.2 mm 2 m/S 755 mmHg 86%
    04:00 +12°C° 0.2 mm 2 m/S 755 mmHg 88%
    05:00 +12°C° 0.2 mm 1 m/S 755 mmHg 88%
    06:00 +12°C° 0.2 mm 1 m/S 754 mmHg 89%
    07:00 +12°C° 0.2 mm 1 m/S 754 mmHg 89%
    08:00 +12°C° 0.3 mm 1 m/S 754 mmHg 89%
    09:00 +12°C° 0.3 mm 2 m/S 753 mmHg 88%
    10:00 +12°C° 0.3 mm 2 m/S 753 mmHg 88%
    11:00 +12°C° 0.4 mm 2 m/S 753 mmHg 88%
    12:00 +12°C° 0.4 mm 2 m/S 752 mmHg 89%
    13:00 +12°C° 0.4 mm 2 m/S 751 mmHg 89%
    14:00 +11°C° 1 mm 3 m/S 750 mmHg 90%
    15:00 +11°C° 1 mm 3 m/S 749 mmHg 91%
    16:00 +11°C° 1 mm 3 m/S 749 mmHg 92%
    17:00 +11°C° 4.6 mm 4 m/S 748 mmHg 92%
    18:00 +10°C° 4.6 mm 5 m/S 746 mmHg 92%
    19:00 +10°C° 4.6 mm 5 m/S 745 mmHg 92%
    20:00 +9°C° 3.1 mm 6 m/S 747 mmHg 92%
    21:00 +8°C° 3.1 mm 6 m/S 748 mmHg 91%
    22:00 +6°C° 3.1 mm 7 m/S 750 mmHg 90%
    23:00 +7°C° 0.4 mm 6 m/S 751 mmHg 90%

    24 September, Montag

    Zeit Temperatur Niederschläge Wind Luftdruck Luftfeuchtigkeit
    00:00 +7°C° 0.4 mm 5 m/S 753 mmHg 89%
    01:00 +7°C° 0.4 mm 4 m/S 755 mmHg 89%
    02:00 +7°C° 0 mm 4 m/S 756 mmHg 88%
    03:00 +7°C° 0 mm 4 m/S 757 mmHg 88%
    04:00 +8°C° 0 mm 3 m/S 758 mmHg 87%
    05:00 +8°C° 0 mm 3 m/S 759 mmHg 87%
    06:00 +7°C° 0 mm 3 m/S 760 mmHg 87%
    07:00 +7°C° 0 mm 2 m/S 761 mmHg 88%
    08:00 +9°C° 0 mm 3 m/S 762 mmHg 81%
    09:00 +10°C° 0 mm 4 m/S 762 mmHg 75%
    10:00 +12°C° 0 mm 5 m/S 763 mmHg 68%
    11:00 +12°C° 0.2 mm 5 m/S 763 mmHg 64%
    12:00 +13°C° 0.2 mm 5 m/S 764 mmHg 59%
    13:00 +14°C° 0.2 mm 5 m/S 764 mmHg 55%
    14:00 +14°C° 0.1 mm 5 m/S 764 mmHg 53%
    15:00 +14°C° 0.1 mm 5 m/S 764 mmHg 51%
    16:00 +13°C° 0.1 mm 5 m/S 765 mmHg 49%
    17:00 +12°C° 0 mm 5 m/S 765 mmHg 55%
    18:00 +11°C° 0 mm 4 m/S 766 mmHg 60%
    19:00 +9°C° 0 mm 3 m/S 766 mmHg 65%
    20:00 +9°C° 0 mm 2 m/S 767 mmHg 69%
    21:00 +8°C° 0 mm 2 m/S 768 mmHg 73%
    22:00 +7°C° 0 mm 2 m/S 768 mmHg 76%
    23:00 +8°C° 0 mm 1 m/S 769 mmHg 78%

    25 September, Dienstag

    Zeit Temperatur Niederschläge Wind Luftdruck Luftfeuchtigkeit
    00:00 +8°C° 0 mm 1 m/S 769 mmHg 80%
    01:00 +7°C° 0 mm 1 m/S 769 mmHg 82%
    02:00 +7°C° 0 mm 1 m/S 769 mmHg 83%
    03:00 +7°C° 0 mm 1 m/S 769 mmHg 84%
    04:00 +7°C° 0 mm 1 m/S 770 mmHg 85%
    05:00 +7°C° 0 mm 1 m/S 770 mmHg 84%
    06:00 +7°C° 0 mm 1 m/S 770 mmHg 84%
    07:00 +6°C° 0 mm 0 m/S 770 mmHg 84%
    08:00 +9°C° 0 mm 1 m/S 770 mmHg 75%
    09:00 +11°C° 0 mm 1 m/S 771 mmHg 66%
    10:00 +13°C° 0 mm 1 m/S 771 mmHg 58%
    11:00 +14°C° 0 mm 1 m/S 770 mmHg 53%
    12:00 +15°C° 0 mm 1 m/S 770 mmHg 49%
    13:00 +16°C° 0 mm 1 m/S 770 mmHg 44%
    14:00 +16°C° 0 mm 1 m/S 769 mmHg 44%
    15:00 +16°C° 0 mm 1 m/S 769 mmHg 44%
    16:00 +16°C° 0 mm 1 m/S 768 mmHg 44%
    17:00 +14°C° 0 mm 1 m/S 768 mmHg 50%
    18:00 +13°C° 0 mm 1 m/S 768 mmHg 56%
    19:00 +11°C° 0 mm 1 m/S 768 mmHg 61%
    20:00 +11°C° 0 mm 1 m/S 768 mmHg 63%
    21:00 +10°C° 0 mm 1 m/S 768 mmHg 64%
    22:00 +9°C° 0 mm 2 m/S 768 mmHg 65%
    23:00 +8°C° 0 mm 2 m/S 767 mmHg 64%

    26 September, Mittwoch

    Zeit Temperatur Niederschläge Wind Luftdruck Luftfeuchtigkeit
    00:00 +8°C° 0 mm 2 m/S 767 mmHg 64%
    01:00 +9°C° 0 mm 1 m/S 767 mmHg 64%
    02:00 +9°C° 0 mm 1 m/S 766 mmHg 63%
    03:00 +9°C° 0 mm 1 m/S 766 mmHg 62%
    04:00 +8°C° 0 mm 1 m/S 766 mmHg 61%
    05:00 +8°C° 0 mm 1 m/S 765 mmHg 61%
    06:00 +8°C° 0 mm 1 m/S 765 mmHg 61%
    07:00 +8°C° 0 mm 1 m/S 765 mmHg 60%
    08:00 +10°C° 0 mm 1 m/S 765 mmHg 54%
    09:00 +13°C° 0 mm 1 m/S 765 mmHg 49%
    10:00 +15°C° 0 mm 1 m/S 764 mmHg 43%
    11:00 +16°C° 0 mm 1 m/S 764 mmHg 39%
    12:00 +18°C° 0 mm 2 m/S 764 mmHg 36%
    13:00 +19°C° 0 mm 2 m/S 763 mmHg 33%
    14:00 +19°C° 0 mm 2 m/S 763 mmHg 34%
    15:00 +19°C° 0 mm 2 m/S 762 mmHg 36%
    16:00 +20°C° 0 mm 2 m/S 762 mmHg 38%
    17:00 +18°C° 0 mm 2 m/S 761 mmHg 44%
    18:00 +16°C° 0 mm 2 m/S 761 mmHg 50%
    19:00 +14°C° 0 mm 1 m/S 761 mmHg 56%
    20:00 +13°C° 0 mm 2 m/S 761 mmHg 58%
    21:00 +12°C° 0 mm 2 m/S 761 mmHg 60%
    22:00 +12°C° 0 mm 2 m/S 761 mmHg 61%
    23:00 +10°C° 0 mm 2 m/S 761 mmHg 64%
    Mehr zeigen